Location: Drummondville
(45.8830°N, 72.4830°W)
Time: 12:10:58
(UTC-05:00)

Envisat - Pass Details

Date: 18 November 2017
Orbit: 764 x 766 km, 98.2° (Epoch: 14 December)

Event Time Altitude Azimuth Distance (km) Brightness Sun altitude
Exits shadow 19:27:34 12° 349° (N) 2,209 5.5 -33.2°
Drops below altitude 10° 19:27:50 10° 349° (N) 2,314 5.6 -33.3°
Sets 19:30:08 0° 348° (NNW) 3,244 6.5 -33.7°
